sat.trackr.live / text

‹ back to catalog

NUSAT-37 (JOAN CLARKE)

NORAD 56203 · 2023-054AB

PAYLOAD ACTIVE UNKNOWN

§ Identity

Operator
Country
ARGN
Launch date
2023-04-15
Launch site
AFWTR
Launch vehicle
Mass (kg)
RCS (m²)

External: N2YO · Heavens-Above · Gunter

§ Orbital elements

Epoch: 2026-05-25T05:07:50.971296Z

Period
92.60 min
Inclination
97.2663°
Eccentricity
0.0006487
Mean motion
15.55061671 rev/d
Perigee alt
397.6 km
Apogee alt
406.4 km
Semi-major
6,780.1 km
B*
6.4826e-4
RAAN
51.8968°
Arg perigee
24.3667°
Mean anomaly
335.7893°
Rev number
17,507

§ Raw data

NUSAT-37 (JOAN CLARKE)1 56203U 23054AB  26145.21378439  .00043666  00000+0  64826-3 0  99982 56203  97.2663  51.8968 0006487  24.3667 335.7893 15.55061671175076

JSON: /api/v1/satellites/56203 · /tle

For live sub-satellite position, see the globe view (requires WebGL).

§ Visibility from observer

Set your observer location to see the next 7 days of passes ≥ 10°. The values pass through the URL so the page stays shareable.

No JS? Fill the form by hand. The geolocation button needs JavaScript.